• In Uzbekistan
  • List of Countries
  • For 7 days
  • Water Temperature
  • Satellite Maps
  • Weather Map
  • Weather Widgets
  • user-avatar
    Login

    Hourly Weather Zara

    Today, 19 October, Thursday

    Time Temperature Precipitation Wind Pressure Humidity
    00:00 +6°C° 0 mm 0 mps 636 mmHg 72%
    01:00 +6°C° 0 mm 0 mps 636 mmHg 73%
    02:00 +6°C° 0 mm 0 mps 636 mmHg 74%
    03:00 +5°C° 0 mm 0 mps 636 mmHg 74%
    04:00 +5°C° 0 mm 0 mps 636 mmHg 76%
    05:00 +5°C° 0 mm 0 mps 635 mmHg 77%
    06:00 +4°C° 0 mm 0 mps 635 mmHg 78%
    07:00 +7°C° 0 mm 1 mps 636 mmHg 70%
    08:00 +9°C° 0 mm 1 mps 637 mmHg 62%
    09:00 +11°C° 0 mm 1 mps 637 mmHg 54%
    10:00 +12°C° 0 mm 1 mps 638 mmHg 48%
    11:00 +14°C° 0 mm 1 mps 638 mmHg 43%
    12:00 +15°C° 0 mm 1 mps 638 mmHg 37%
    13:00 +16°C° 0 mm 1 mps 638 mmHg 35%
    14:00 +16°C° 0 mm 1 mps 638 mmHg 34%
    15:00 +16°C° 0 mm 1 mps 638 mmHg 33%
    16:00 +15°C° 0 mm 1 mps 637 mmHg 37%
    17:00 +13°C° 0 mm 0 mps 637 mmHg 41%
    18:00 +11°C° 0 mm 0 mps 637 mmHg 45%
    19:00 +11°C° 0 mm 0 mps 636 mmHg 46%
    20:00 +10°C° 0 mm 0 mps 636 mmHg 47%
    21:00 +9°C° 0 mm 0 mps 636 mmHg 48%
    22:00 +10°C° 0 mm 1 mps 636 mmHg 49%
    23:00 +10°C° 0 mm 1 mps 636 mmHg 50%

    Tomorrow, 20 October, Friday

    Time Temperature Precipitation Wind Pressure Humidity
    00:00 +9°C° 0 mm 1 mps 636 mmHg 50%
    01:00 +9°C° 0 mm 1 mps 635 mmHg 51%
    02:00 +8°C° 0 mm 1 mps 635 mmHg 52%
    03:00 +8°C° 0 mm 1 mps 635 mmHg 53%
    04:00 +8°C° 0 mm 1 mps 635 mmHg 53%
    05:00 +7°C° 0 mm 1 mps 635 mmHg 54%
    06:00 +7°C° 0 mm 1 mps 634 mmHg 55%
    07:00 +9°C° 0 mm 1 mps 635 mmHg 50%
    08:00 +11°C° 0 mm 1 mps 636 mmHg 45%
    09:00 +12°C° 0 mm 1 mps 637 mmHg 39%
    10:00 +14°C° 0 mm 1 mps 637 mmHg 37%
    11:00 +15°C° 0 mm 1 mps 638 mmHg 34%
    12:00 +16°C° 0 mm 1 mps 638 mmHg 31%
    13:00 +18°C° 0 mm 1 mps 638 mmHg 30%
    14:00 +18°C° 0 mm 1 mps 638 mmHg 29%
    15:00 +19°C° 0 mm 1 mps 638 mmHg 28%
    16:00 +16°C° 0 mm 1 mps 637 mmHg 32%
    17:00 +15°C° 0 mm 1 mps 637 mmHg 37%
    18:00 +13°C° 0 mm 1 mps 636 mmHg 41%
    19:00 +12°C° 0 mm 1 mps 636 mmHg 44%
    20:00 +12°C° 0 mm 1 mps 636 mmHg 46%
    21:00 +11°C° 0 mm 1 mps 636 mmHg 49%
    22:00 +9°C° 0 mm 0 mps 636 mmHg 50%
    23:00 +9°C° 0 mm 0 mps 635 mmHg 52%

    Day after tomorrow, 21 October, Saturday

    Time Temperature Precipitation Wind Pressure Humidity
    00:00 +8°C° 0 mm 0 mps 635 mmHg 53%
    01:00 +8°C° 0 mm 0 mps 635 mmHg 54%
    02:00 +8°C° 0 mm 0 mps 635 mmHg 54%
    03:00 +7°C° 0 mm 0 mps 635 mmHg 55%
    04:00 +7°C° 0 mm 0 mps 634 mmHg 56%
    05:00 +6°C° 0 mm 0 mps 634 mmHg 57%
    06:00 +6°C° 0 mm 0 mps 634 mmHg 58%
    07:00 +8°C° 0 mm 0 mps 635 mmHg 52%
    08:00 +10°C° 0 mm 0 mps 635 mmHg 47%
    09:00 +11°C° 0 mm 0 mps 636 mmHg 42%
    10:00 +13°C° 0 mm 0 mps 636 mmHg 39%
    11:00 +15°C° 0 mm 1 mps 637 mmHg 36%
    12:00 +16°C° 0 mm 1 mps 637 mmHg 34%
    13:00 +16°C° 0 mm 1 mps 636 mmHg 33%
    14:00 +17°C° 0 mm 2 mps 636 mmHg 32%
    15:00 +17°C° 0 mm 2 mps 636 mmHg 31%
    16:00 +16°C° 0 mm 2 mps 635 mmHg 36%
    17:00 +14°C° 0 mm 2 mps 635 mmHg 42%
    18:00 +13°C° 0 mm 1 mps 634 mmHg 47%
    19:00 +12°C° 0 mm 1 mps 634 mmHg 51%
    20:00 +11°C° 0 mm 1 mps 634 mmHg 56%
    21:00 +10°C° 0 mm 1 mps 634 mmHg 60%
    22:00 +10°C° 0 mm 1 mps 634 mmHg 63%
    23:00 +9°C° 0 mm 1 mps 633 mmHg 66%

    22 October, Sunday

    Time Temperature Precipitation Wind Pressure Humidity
    00:00 +8°C° 0 mm 0 mps 633 mmHg 69%
    01:00 +7°C° 0 mm 0 mps 633 mmHg 70%
    02:00 +7°C° 0 mm 0 mps 633 mmHg 71%
    03:00 +6°C° 0 mm 0 mps 632 mmHg 72%
    04:00 +6°C° 0 mm 0 mps 632 mmHg 73%
    05:00 +6°C° 0 mm 0 mps 632 mmHg 73%
    06:00 +5°C° 0 mm 0 mps 632 mmHg 74%
    07:00 +7°C° 0 mm 0 mps 633 mmHg 67%
    08:00 +9°C° 0 mm 0 mps 633 mmHg 60%
    09:00 +10°C° 0 mm 0 mps 634 mmHg 53%
    10:00 +12°C° 0 mm 1 mps 634 mmHg 47%
    11:00 +14°C° 0 mm 1 mps 635 mmHg 41%
    12:00 +15°C° 0 mm 2 mps 635 mmHg 35%
    13:00 +15°C° 0 mm 2 mps 635 mmHg 33%
    14:00 +16°C° 0 mm 3 mps 635 mmHg 32%
    15:00 +16°C° 0 mm 3 mps 634 mmHg 31%
    16:00 +14°C° 0 mm 3 mps 634 mmHg 36%
    17:00 +13°C° 0 mm 2 mps 634 mmHg 42%
    18:00 +12°C° 0 mm 2 mps 633 mmHg 48%
    19:00 +10°C° 0 mm 2 mps 633 mmHg 54%
    20:00 +10°C° 0 mm 1 mps 633 mmHg 60%
    21:00 +9°C° 0 mm 1 mps 633 mmHg 66%
    22:00 +9°C° 0 mm 1 mps 633 mmHg 69%
    23:00 +8°C° 0 mm 1 mps 633 mmHg 73%

    23 October, Monday

    Time Temperature Precipitation Wind Pressure Humidity
    00:00 +8°C° 0 mm 1 mps 633 mmHg 77%
    01:00 +7°C° 0 mm 1 mps 633 mmHg 78%
    02:00 +7°C° 0 mm 1 mps 632 mmHg 80%
    03:00 +6°C° 0 mm 1 mps 632 mmHg 82%
    04:00 +6°C° 0 mm 1 mps 632 mmHg 83%
    05:00 +6°C° 0 mm 1 mps 632 mmHg 83%
    06:00 +5°C° 0 mm 1 mps 632 mmHg 84%
    07:00 +7°C° 0 mm 1 mps 632 mmHg 76%
    08:00 +8°C° 0 mm 1 mps 633 mmHg 68%
    09:00 +10°C° 0 mm 1 mps 634 mmHg 60%
    10:00 +11°C° 0 mm 1 mps 634 mmHg 52%
    11:00 +13°C° 0 mm 1 mps 634 mmHg 43%
    12:00 +14°C° 0 mm 1 mps 634 mmHg 34%
    13:00 +15°C° 0 mm 1 mps 634 mmHg 32%
    14:00 +16°C° 0 mm 2 mps 634 mmHg 29%
    15:00 +16°C° 0 mm 2 mps 634 mmHg 26%
    16:00 +15°C° 0 mm 2 mps 633 mmHg 28%
    17:00 +14°C° 0 mm 1 mps 633 mmHg 31%
    18:00 +12°C° 0 mm 1 mps 632 mmHg 33%
    19:00 +12°C° 0 mm 1 mps 632 mmHg 34%
    20:00 +10°C° 0 mm 2 mps 632 mmHg 34%
    21:00 +10°C° 0 mm 2 mps 632 mmHg 35%
    22:00 +9°C° 0 mm 2 mps 632 mmHg 35%
    23:00 +9°C° 0 mm 2 mps 632 mmHg 36%

    24 October, Tuesday

    Time Temperature Precipitation Wind Pressure Humidity
    00:00 +8°C° 0 mm 2 mps 632 mmHg 37%
    01:00 +8°C° 0 mm 2 mps 631 mmHg 38%
    02:00 +8°C° 0 mm 2 mps 631 mmHg 39%
    03:00 +7°C° 0 mm 2 mps 631 mmHg 40%
    04:00 +7°C° 0 mm 2 mps 631 mmHg 41%
    05:00 +7°C° 0 mm 2 mps 631 mmHg 41%
    06:00 +6°C° 0 mm 2 mps 631 mmHg 42%
    07:00 +8°C° 0 mm 2 mps 632 mmHg 39%
    08:00 +9°C° 0 mm 2 mps 633 mmHg 36%
    09:00 +12°C° 0 mm 2 mps 634 mmHg 33%
    10:00 +12°C° 0 mm 3 mps 634 mmHg 31%
    11:00 +14°C° 0 mm 4 mps 634 mmHg 28%
    12:00 +15°C° 0 mm 4 mps 635 mmHg 26%
    13:00 +16°C° 0 mm 5 mps 635 mmHg 26%
    14:00 +16°C° 0 mm 5 mps 635 mmHg 26%
    15:00 +17°C° 0 mm 5 mps 635 mmHg 26%
    16:00 +15°C° 0 mm 4 mps 634 mmHg 30%
    17:00 +14°C° 0 mm 4 mps 634 mmHg 35%
    18:00 +12°C° 0 mm 3 mps 634 mmHg 39%
    19:00 +12°C° 0 mm 3 mps 634 mmHg 40%
    20:00 +11°C° 0 mm 3 mps 634 mmHg 42%
    21:00 +11°C° 0 mm 3 mps 634 mmHg 44%
    22:00 +10°C° 0 mm 3 mps 634 mmHg 45%
    23:00 +10°C° 0 mm 3 mps 634 mmHg 47%
    Show more